User: anonymous   Login
Location: DARK SKY Beskydy - Park tmavé oblohy, www.darkskybeskydy.cz
(49.4926°N, 18.5016°E)
Time: 09:48:49
(UTC+01:00)
Language:

deb Explorer IX - Orbit

View from above orbital plane
View from above orbital plane
View from above satellite
View from above satellite

Ground track
Ground track

The orbit data is extracted from the following two-line orbital elements,

1 00085U 61004C   24055.93515237  .00010465  00000-0  14913-2 0  9991
2 00085  38.7446 257.2313 0281735 238.8014 118.4843 14.52857978123889
Epoch (UTC): 24 February 2024 22:26:37
Eccentricity: 0.0281735
inclination: 38.7446°
perigee height: 516 km
apogee height: 916 km
right ascension of ascending node: 257.2313°
argument of perigee: 238.8014°
revolutions per day: 14.52857978
mean anomaly at epoch: 118.4843°
orbit number at epoch: 12388

The dashed part of the orbit path shows where the satellite is in the earth's shadow,  

DLR